[Date Prev][Date Next][Thread Prev][Thread Next] - [Date Index][Thread Index][Author Index]
2 Line ISS Keps 11-28
- Subject: [sarex] 2 Line ISS Keps 11-28
- From: "Dave Larsen PhD" <doc@xxxxxxxxxxx>
- Date: Fri, 28 Nov 2003 05:37:40 -0800
ISS
1 25544U 98067A 03332.42071759 .00033474 00000-0 33994-3 0 8223
2 25544 51.6305 271.7720 0006217 182.7819 317.1244 15.64854615286676
----
Via the sarex mailing list at AMSAT.ORG courtesy of AMSAT-NA.
To unsubscribe, send "unsubscribe sarex" to Majordomo@amsat.org
AMSAT Home